CAPE
0 0 0 0 0 0 0 0 0 0 0 257 290 223 266 287 221 169 310 343 310 172 18 0 0 0 0 0 0 0 0 0 0 0 0 0 0 0 0 0 0 0 0
0 0 0 0 0 0 0 0 0 0 0 0 0 115 248 256 258 225 166 154 130 174 175 63 42 4 0 0 0 0 0 0 0 0 0 0 0 0 0 0 0 0 0
0 0 0 0 0 0 0 0 0 0 0 0 0 0 0 0 62 54 91 193 257 235 147 59 31 26 0 0 0 0 0 22 0 0 6 0 0 0 0 0 0 0 0
0 0 0 0 0 0 0 0 0 0 0 0 0 0 0 0 0 0 0 8 29 81 139 89 91 85 62 3 6 0 0 0 0 0 0 0 0 0 0 0 0 0 0
0 0 0 0 0 0 0 0 0 0 0 0 0 0 0 0 0 0 0 0 0 0 0 61 49 23 33 20 19 8 1 0 0 1 1 1 0 0 0 0 0 0 0
0 0 0 0 0 0 0 0 0 0 0 0 0 0 0 0 0 0 0 0 0 0 0 0 0 15 0 19 35 32 25 14 2 36 11 20 13 1 0 0 0 0 0
0 0 0 0 0 0 0 0 0 0 0 0 0 0 0 0 0 0 0 0 0 0 0 0 0 0 0 0 10 14 19 31 42 22 27 6 9 32 13 0 0 0 0
0 0 0 0 0 0 0 0 0 0 0 0 0 0 0 0 0 0 0 0 0 0 0 0 0 0 0 0 0 0 5 10 6 5 6 7 13 21 3 30 4 0 0
0 0 0 0 0 0 0 0 0 0 0 0 0 0 0 0 0 0 0 0 0 0 0 0 0 0 0 0 0 0 0 0 0 0 0 1 1 0 0 6 1 8 2
0 0 0 0 0 0 0 0 0 0 0 0 0 0 0 0 0 0 0 0 0 0 0 0 0 0 0 0 0 0 0 0 0 0 0 0 0 0 0 0 0 0 1
0 0 0 0 0 0 0 0 0 0 0 0 0 0 0 0 0 0 0 0 0 0 0 0 0 0 0 0 0 0 0 0 0 0 0 0 2 1 1 2 1 0 0
0 0 0 0 0 0 0 0 0 0 0 0 0 0 0 0 0 0 0 0 0 0 0 0 0 0 0 0 0 0 0 0 0 0 0 0 1 0 2 1 1 1 0
0 0 0 0 0 0 0 0 0 0 0 0 0 0 0 0 0 0 0 0 0 0 0 0 0 0 0 0 0 0 0 0 1 1 0 1 0 2 1 1 1 1 0
0 0 0 0 0 0 0 0 0 0 0 0 0 0 0 0 1 0 0 0 0 0 0 0 0 0 0 0 0 0 0 0 0 0 0 0 0 0 0 0 0 0 0
0 0 0 0 0 0 0 0 0 0 0 0 0 0 1 0 0 0 2 2 1 1 1 1 1 0 0 1 0 0 1 1 1 0 1 1 2 3 1 0 1 0 0
0 0 0 0 0 0 0 0 0 0 0 0 0 0 0 0 0 0 1 1 0 0 0 0 1 1 1 1 2 0 0 0 0 0 0 0 0 0 3 4 4 2 0
0 0 0 0 0 0 0 0 0 0 0 0 0 0 0 1 1 1 1 1 0 0 0 0 0 0 2 3 2 0 0 0 0 0 0 0 0 0 0 0 0 0 0
0 0 0 0 0 0 0 0 0 0 0 0 0 1 1 1 1 0 1 1 0 0 0 0 0 0 0 0 0 0 0 0 0 0 0 0 0 0 0 0 0 0 0
0 0 0 0 0 0 0 0 0 0 0 0 1 0 0 1 1 1 2 1 2 0 0 0 0 0 0 0 0 0 0 0 0 0 0 0 0 2 1 0 0 0 0
0 0 0 0 0 0 0 0 0 0 0 0 0 0 1 1 1 1 3 2 0 0 0 0 0 0 0 0 0 0 0 0 0 0 0 0 0 0 0 0 0 0 0
0 0 0 0 0 0 0 0 0 0 0 0 0 0 0 0 0 1 1 0 0 0 0 0 0 0 0 0 0 0 0 0 0 0 0 0 0 0 0 0 0 0 0
0 0 0 0 0 0 0 0 0 0 0 0 0 0 0 0 2 0 0 0 0 0 0 0 0 0 0 0 0 0 0 0 0 0 0 0 0 0 0 0 0 0 0
0 0 0 0 0 0 0 0 0 1 0 1 0 0 0 0 0 0 0 0 0 0 0 0 0 0 0 0 0 0 0 0 0 0 0 0 0 0 0 0 0 0 0
0 0 0 0 0 0 0 0 0 0 0 0 0 1 0 0 0 0 0 0 0 0 0 0 0 0 0 0 0 0 0 0 0 0 0 0 0 0 0 0 0 0 0
0 0 0 0 0 0 0 0 0 0 0 0 0 0 0 0 0 0 0 0 0 0 0 0 0 0 0 0 0 0 0 0 0 0 0 0 0 0 0 0 0 0 0
0 0 0 0 0 0 0 0 0 0 0 0 0 0 0 0 0 0 0 0 0 0 0 0 0 0 0 0 0 0 0 0 0 0 0 0 0 0 0 0 0 0 0
CIN
0 0 0 0 0 0 0 0 0 0 -1 -63 -47 -50 -43 -52 -56 -66 -56 -58 -57 -67 -97 0 0 0 0 0 0 0 0 0 0 0 0 0 0 0 0 0 0 0 0
0 0 0 0 0 0 0 0 0 0 0 0 0 -49 -56 -68 -76 -81 -81 -97 -90 -68 -55 -60 -55 -34 0 0 0 0 0 -16 0 0 0 0 0 0 0 0 0 0 0
0 0 0 0 0 0 0 0 0 0 0 0 0 0 0 0 -33 -41 -100 -80 -54 -46 -53 -53 -65 -67 0 0 0 0 0 -26 0 0 -10 0 0 0 0 0 0 0 0
0 0 0 0 0 0 0 0 0 0 0 0 0 0 0 0 0 0 0 -21 -11 -63 -50 -46 -47 -44 -48 -19 -27 0 0 0 0 0 0 0 0 0 0 0 0 0 0
0 0 0 0 0 0 0 0 0 0 0 0 0 0 0 0 0 0 0 0 0 0 0 -45 -47 -28 -40 -43 -35 -29 -3 0 0 -2 -2 -50 0 0 0 0 0 0 0
0 0 0 0 0 0 0 0 0 0 0 0 0 0 0 0 0 0 0 0 0 0 0 0 0 -42 0 -21 -20 -22 -22 -20 -7 -51 -20 -27 -44 -38 0 0 0 0 0
0 0 0 0 0 0 0 0 0 0 0 0 0 0 0 0 0 0 0 0 0 0 0 0 0 0 0 0 -11 -17 -17 -35 -88 -55 -16 -12 -14 -18 -27 0 0 0 0
0 0 0 0 0 0 0 0 0 0 0 0 0 0 0 0 0 0 0 0 0 0 0 0 0 0 0 0 0 0 -15 -10 -16 -21 -19 -4 -17 -28 -33 -40 -78 0 0
0 0 0 0 0 0 0 0 0 0 0 0 0 0 0 0 0 0 0 0 0 0 0 0 0 0 0 0 0 0 0 0 0 0 0 0 0 0 -10 -57 0 -70 -27
0 0 0 0 0 0 0 0 0 0 0 0 0 0 0 0 0 0 0 0 0 0 0 0 0 0 0 0 0 0 0 0 0 0 0 0 0 0 0 0 0 0 -55
0 0 0 0 0 0 0 0 0 0 0 0 0 0 0 0 0 0 0 0 0 0 0 0 0 0 0 0 0 0 0 0 0 0 0 0 0 0 0 0 0 0 0
0 0 0 0 0 0 0 0 0 0 0 0 0 0 0 0 0 0 0 0 0 0 0 0 0 0 0 0 0 0 0 0 0 0 0 0 0 0 0 0 0 0 0
0 0 0 0 0 0 0 0 0 0 0 0 0 0 0 0 0 0 0 0 0 0 0 0 0 0 0 0 0 0 0 0 0 0 0 0 0 0 0 0 0 0 0
0 0 0 0 0 0 0 0 0 0 0 0 0 0 0 0 0 0 0 0 0 0 0 0 0 0 0 0 0 0 0 0 0 0 0 0 0 0 0 0 0 0 0
0 0 0 0 0 0 0 0 0 0 0 0 0 0 0 0 0 0 0 0 0 0 0 0 0 0 0 0 0 0 0 0 0 0 0 0 0 0 0 0 0 0 0
0 0 0 0 0 0 0 0 0 0 0 0 0 0 0 0 0 0 0 0 0 0 0 0 0 0 0 0 0 0 0 0 0 0 0 0 0 0 0 0 0 0 0
0 0 0 0 0 0 0 0 0 0 0 0 0 0 0 0 0 0 0 0 0 0 0 0 0 0 0 0 0 0 0 0 0 0 0 0 0 0 0 0 0 0 0
0 0 0 0 0 0 0 0 0 0 0 0 0 0 0 0 0 0 0 0 0 0 0 0 0 0 0 0 0 0 0 0 0 0 0 0 0 0 0 0 0 0 0
0 0 0 0 0 0 0 0 0 0 0 0 0 0 0 0 0 0 0 0 0 0 0 0 0 0 0 0 0 0 0 0 0 0 0 0 0 0 0 0 0 0 0
0 0 0 0 0 0 0 0 0 0 0 0 0 0 0 0 0 0 0 0 0 0 0 0 0 0 0 0 0 0 0 0 0 0 0 0 0 0 0 0 0 0 0
0 0 0 0 0 0 0 0 0 0 0 0 0 0 0 0 0 0 0 0 0 0 0 0 0 0 0 0 0 0 0 0 0 0 0 0 0 0 0 0 0 0 0
0 0 0 0 0 0 0 0 0 0 0 0 0 0 0 0 0 0 0 0 0 0 0 0 0 0 0 0 0 0 0 0 0 0 0 0 0 0 0 0 0 0 0
0 0 0 0 0 0 0 0 0 0 0 0 0 0 0 0 0 0 0 0 0 0 0 0 0 0 0 0 0 0 0 0 0 0 0 0 0 0 0 0 0 0 0
0 0 0 0 0 0 0 0 0 0 0 0 0 0 0 0 0 0 0 0 0 0 0 0 0 0 0 0 0 0 0 0 0 0 0 0 0 0 0 0 0 0 0
0 0 0 0 0 0 0 0 0 0 0 0 0 0 0 0 0 0 0 0 0 0 0 0 0 0 0 0 0 0 0 0 0 0 0 0 0 0 0 0 0 0 0
0 0 0 0 0 0 0 0 0 0 0 0 0 0 0 0 0 0 0 0 0 0 0 0 0 0 0 0 0 0 0 0 0 0 0 0 0 0 0 0 0 0 0
Wind_Speed
28 25 22 20 18 18 19 19 19 21 19 19 20 20 19 18 17 17 16 18 18 18 17 17 18 17 17 17 17 18 18 19 22 23 25 25 24 24 23 23 23 22 20
24 21 21 21 21 21 21 21 22 24 24 22 21 21 21 20 21 22 21 21 21 21 21 22 20 21 21 21 21 20 23 23 22 24 28 31 31 29 27 26 25 25 24
24 22 21 21 21 22 23 23 24 24 23 24 24 24 24 23 24 24 24 24 25 25 24 24 25 25 23 23 22 22 22 26 25 22 24 30 32 33 30 28 27 27 26
24 22 22 22 22 22 22 24 25 26 25 24 24 24 26 27 25 26 27 29 28 27 25 24 23 22 21 21 21 22 23 24 26 27 24 28 31 35 40 33 31 30 31
21 21 21 21 21 22 24 24 24 23 24 24 24 24 25 25 27 28 29 30 29 29 27 25 24 21 21 22 22 22 22 23 25 26 28 27 30 31 35 44 38 34 31
19 19 19 20 21 22 22 22 23 23 23 22 22 23 24 24 25 26 26 27 27 26 26 26 24 23 23 22 21 22 22 22 23 24 25 26 28 31 33 40 42 44 38
18 18 18 20 20 21 22 22 21 22 23 22 22 23 22 22 23 24 24 25 25 25 27 27 26 25 25 23 23 23 24 24 25 26 26 25 27 30 33 35 39 42 37
17 17 18 18 18 19 20 21 21 22 23 23 23 22 22 22 22 23 24 25 26 26 27 27 27 28 27 25 24 24 25 25 25 27 28 27 25 25 26 31 36 40 41
17 16 15 16 17 18 20 20 20 21 22 21 21 22 21 22 23 24 24 25 26 26 26 27 27 27 26 26 26 25 26 26 26 28 28 27 27 25 23 25 28 32 38
17 16 15 16 18 18 19 19 20 21 22 21 21 22 23 23 23 23 25 25 25 25 26 26 26 26 25 26 25 26 26 26 26 27 28 26 25 27 26 24 24 25 30
19 17 17 18 18 18 18 19 20 21 22 22 22 22 23 23 23 24 24 24 25 26 26 25 25 25 25 25 25 25 25 25 25 26 25 25 25 26 24 20 22 23 25
19 19 18 19 18 19 19 20 21 21 21 21 21 21 22 23 23 23 24 24 25 25 25 24 24 23 23 24 24 24 24 24 24 24 24 25 24 26 24 21 20 20 24
19 20 20 20 19 19 19 20 20 20 19 19 19 20 21 21 22 23 23 23 23 24 24 22 22 22 22 23 23 22 22 22 23 23 24 24 23 22 23 21 20 19 19
18 20 22 21 18 18 18 19 19 18 18 18 19 20 21 21 21 22 22 22 21 22 22 21 21 21 22 22 21 21 21 22 21 23 23 23 23 22 22 22 19 17 18
19 20 21 20 17 17 17 17 18 17 16 17 18 19 20 20 20 20 20 20 20 20 20 20 21 21 21 21 21 21 21 21 22 23 22 24 24 23 23 21 20 19 18
18 19 19 20 17 14 15 16 16 15 14 16 17 18 19 19 18 18 18 18 18 18 18 19 19 20 20 21 21 21 21 22 22 23 23 23 23 24 25 25 23 22 19
18 18 18 18 16 15 13 15 14 13 14 16 17 18 17 17 16 16 16 16 16 16 17 17 18 19 20 21 22 22 22 22 23 23 23 23 22 23 23 22 21 20 19
15 16 15 15 14 14 14 14 14 15 15 16 15 14 14 13 13 14 14 14 14 15 15 16 17 18 20 21 22 22 22 22 23 23 23 23 22 22 22 22 21 21 20
14 14 14 13 14 12 11 12 13 14 14 13 12 12 11 11 11 12 12 13 13 13 14 16 17 18 19 20 21 21 22 22 23 23 23 23 23 22 23 23 22 20 20
11 12 12 13 11 11 10 11 12 13 12 10 9 9 9 10 10 11 11 12 12 13 14 16 17 19 20 21 22 22 22 22 22 23 23 24 23 24 24 23 22 20 19
10 10 11 11 11 9 9 11 11 10 9 8 8 9 9 10 10 10 11 11 12 13 14 15 17 18 20 21 23 23 23 23 23 23 23 23 24 24 24 23 22 20 20
10 8 10 11 10 8 8 10 10 9 8 7 7 7 8 9 9 9 10 10 11 12 14 15 16 18 19 21 22 23 23 23 23 24 24 23 24 25 24 23 21 21 20
9 9 10 10 11 9 9 10 9 7 6 6 6 6 7 7 8 8 8 9 10 12 13 15 16 18 19 20 22 23 24 24 23 23 24 25 23 23 23 22 21 20 19
9 10 8 11 11 11 11 10 6 5 4 4 5 5 5 6 6 7 9 9 10 11 13 14 16 18 19 19 21 22 23 24 25 25 26 25 24 24 23 22 21 20 19
12 9 9 9 11 9 10 9 5 4 3 3 3 4 4 4 5 8 9 9 11 12 13 14 15 17 19 20 20 22 24 24 25 25 26 26 25 25 24 22 21 21 21
16 14 10 10 13 9 10 9 5 3 3 2 1 2 2 3 4 7 11 12 12 14 14 14 15 17 18 19 21 23 24 25 26 25 26 26 27 26 25 24 23 22 22
Wind_Direction
272 270 269 273 279 286 288 289 290 292 290 288 290 291 292 294 294 291 289 296 299 302 297 295 299 298 293 291 294 297 294 294 304 305 303 301 298 296 295 296 293 291 288
267 270 270 275 280 284 288 289 291 290 291 293 293 294 297 297 296 299 298 298 296 296 301 302 299 296 294 294 293 293 299 299 299 299 305 303 301 296 293 292 289 288 289
263 267 272 277 281 284 288 291 292 295 296 293 294 296 298 299 300 301 300 300 299 299 300 301 304 302 297 294 294 294 292 296 300 295 297 307 301 306 305 295 289 289 286
264 268 272 277 283 287 292 295 296 296 296 299 298 296 294 295 300 302 303 302 303 301 301 302 304 305 304 301 300 299 296 297 297 301 293 294 300 301 303 305 301 293 290
263 268 273 279 286 290 292 295 297 299 300 301 302 303 301 301 300 302 302 302 304 308 305 303 303 304 307 307 308 308 305 300 299 300 304 297 295 299 298 299 301 297 293
266 271 276 281 285 290 295 298 298 298 301 304 306 306 306 307 307 310 311 310 308 310 313 313 309 307 308 309 309 312 313 310 307 307 306 301 304 303 298 298 298 296 299
265 272 277 280 283 289 292 296 300 301 302 304 306 307 309 311 311 313 315 315 315 313 312 315 315 313 312 312 313 314 315 316 316 316 313 307 302 303 303 301 298 297 300
268 275 278 281 286 290 294 297 299 300 303 305 307 311 315 314 316 315 315 315 314 315 317 316 315 315 317 318 319 318 317 318 320 320 320 318 312 308 304 302 302 301 294
269 273 280 284 288 292 295 298 302 305 309 309 313 317 319 318 316 317 317 316 317 317 318 319 318 319 321 322 321 321 322 323 325 325 326 326 324 318 315 309 303 300 299
268 275 280 284 288 292 297 302 305 307 309 313 316 316 316 318 319 320 318 320 321 322 322 320 321 323 323 323 325 324 327 326 329 330 332 334 333 329 329 322 313 305 300
266 272 279 286 292 297 302 307 310 310 310 311 312 314 315 317 318 318 320 322 323 322 323 324 325 325 326 327 329 329 333 333 335 337 339 343 343 340 339 338 327 318 310
266 272 281 289 293 297 303 306 307 309 311 313 315 316 318 318 319 320 322 324 324 326 326 327 327 329 332 332 334 334 338 339 340 343 345 348 350 349 347 347 343 334 320
268 274 284 291 295 299 303 307 309 310 313 317 318 319 320 323 324 325 325 327 328 330 331 334 337 338 338 341 343 344 346 347 348 348 349 352 356 360 360 359 348 342 335
273 279 285 292 298 301 305 309 312 313 315 317 318 320 323 325 327 328 329 331 332 334 336 341 346 347 349 351 352 356 357 357 359 359 359 0 1 7 7 10 11 2 348
278 284 287 292 303 306 309 312 314 315 317 319 321 324 327 329 329 330 333 336 338 340 342 345 349 354 358 0 4 5 4 8 9 6 4 5 5 10 11 16 18 14 11
286 289 293 294 303 311 315 316 318 321 324 325 325 327 328 330 332 337 342 344 345 346 350 351 357 4 5 11 13 15 17 19 18 15 10 6 7 9 13 17 18 19 15
289 291 297 302 306 310 318 320 325 328 326 326 325 326 330 334 339 345 349 353 356 359 359 1 6 7 13 17 20 22 23 21 19 15 13 12 9 7 9 14 17 18 20
296 300 308 314 315 316 319 324 323 322 322 323 328 334 339 345 350 355 358 5 7 8 12 14 11 13 14 17 20 21 20 17 13 11 9 8 8 8 8 6 5 3 6
300 307 319 321 319 323 327 329 327 327 327 331 337 345 354 3 9 12 14 18 21 22 20 11 9 9 10 13 15 13 10 9 8 6 7 6 5 6 2 360 359 0 359
309 316 325 329 332 329 337 338 335 336 334 342 354 10 26 32 34 33 29 23 25 19 12 10 8 8 7 9 8 6 7 5 3 2 0 359 1 358 357 358 356 355 355
318 326 331 333 335 341 342 335 343 350 351 5 26 38 45 50 45 40 34 33 23 14 9 7 6 7 6 4 1 2 2 3 2 1 359 359 355 354 355 355 355 355 354
313 327 334 333 341 350 344 340 343 352 358 12 30 38 51 44 43 45 37 22 15 8 360 2 3 2 4 4 3 2 2 4 3 1 360 358 356 353 352 353 355 354 354
324 317 320 327 331 338 333 330 339 356 358 19 32 41 41 39 44 40 26 13 11 3 355 356 355 355 357 359 360 360 360 1 1 0 357 354 355 355 354 355 354 356 356
326 318 319 316 321 327 326 323 343 9 10 20 36 46 45 41 36 14 1 358 358 357 353 351 351 350 353 356 358 358 358 357 356 356 354 355 355 354 353 353 353 354 354
314 319 311 312 315 324 328 325 329 334 357 9 47 67 61 39 18 359 353 352 345 346 347 347 349 347 347 350 354 353 353 354 354 354 354 353 353 351 351 351 351 351 350
303 306 309 304 302 314 313 315 317 308 318 342 52 60 44 23 9 354 343 342 341 341 343 345 345 345 346 348 348 347 348 350 351 353 351 350 349 349 348 347 346 346 345